sat.trackr.live / text

‹ back to catalog

DMSP 5D-3 F16 (USA 172)

NORAD 28054 · 2003-048A

PAYLOAD ACTIVE UNKNOWN

§ Identity

Operator
Country
US
Launch date
2003-10-18
Launch site
AFWTR
Launch vehicle
Mass (kg)
RCS (m²)
4.30

Purposes: earth_obs

External: N2YO · Heavens-Above · Gunter

§ Orbital elements

Epoch: 2026-09-13T03:56:56.186016Z

Period
101.80 min
Inclination
98.9866°
Eccentricity
0.0005986
Mean motion
14.14490359 rev/d
Perigee alt
839.7 km
Apogee alt
848.4 km
Semi-major
7,222.2 km
B*
3.7480e-5
RAAN
280.5640°
Arg perigee
255.8892°
Mean anomaly
184.9826°
Rev number
18,192

§ Raw data

DMSP 5D-3 F16 (USA 172)1 28054U 03048A   26256.16453919  .00000026  00000+0  37480-4 0  99962 28054  98.9866 280.5640 0005986 255.8892 184.9826 14.14490359181928

JSON: /api/v1/satellites/28054 · /tle

For live sub-satellite position, see the globe view (requires WebGL).

§ Visibility from observer

Set your observer location to see the next 7 days of passes ≥ 10°. The values pass through the URL so the page stays shareable.

No JS? Fill the form by hand. The geolocation button needs JavaScript.

§ Radio — SatNOGS DB

ModeDescriptionDownlinkUplink
BPSK S-band telemetry 2.208 GHz
FM S-band telemetry 2.213 GHz

2 transmitters · refreshed weekly from db.satnogs.org